Traverse City, MI

7:48 PM EDT on September 22, 2017 (GMT -0400)
Cherry Capital

Weather History for KTVC - January, 2013

Change the Weather History Date:

Thursday, January 3, 2013

  Actual Average Record
Temperature  
Mean Temperature 28 °F 23 °F  
Max Temperature 30 °F 29 °F 54 °F (1897)
Min Temperature 25 °F 17 °F -13 °F (1918)
Degree Days  
Heating Degree Days 37 42  
Month to date heating degree days 122 126  
Since 1 July heating degree days 2589 2934  
Moisture  
Dew Point 20 °F    
Average Humidity 72    
Maximum Humidity 81    
Minimum Humidity 63    
Precipitation  
Precipitation T in 0.09 in 0.51 in (1989)
Month to date precipitation T 0.28  
Year to date precipitation T 0.28  
Snow  
Snow 0.00 in - - ()
Snow Depth 4.00 in    
Sea Level Pressure  
Sea Level Pressure 30.02 in    
Wind  
Wind Speed 8 mph (SW)    
Max Wind Speed 17 mph    
Max Gust Speed 25 mph    
Visibility 8 miles    
Events Snow    
T = Trace of Precipitation, MM = Missing Value Source: NWS Daily Summary

Daily Weather History Graph

Daily Weather History Graph

Search for Another Location

Airport or City:

Trip Planner

Search our weather history database for the weather conditions in past years. The results will help you decide how hot, cold, wet, or windy it might be!

Date:

Astronomy

Jan. 03, 2013 Rise Set
Actual Time 8:19 AM EST 5:14 PM EST
Civil Twilight 7:46 AM EST 5:47 PM EST
Nautical Twilight 7:09 AM EST 6:24 PM EST
Astronomical Twilight 6:34 AM EST 7:00 PM EST
Moon No Moon Rise 11:14 AM EST (1/3)
Length of Visible Light 10h 01m
Length of Day
8h 54m
Waning Gibbous, 65% of the Moon is Illuminated
Jan 3
Waning Gibbous
Jan 4
Last Quarter
Jan 11
New
Jan 18
First Quarter
Jan 26
Full

Hourly Weather History & Observations

Time (EST) Temp. Windchill Dew Point Humidity Pressure Visibility Wind Dir Wind Speed Gust Speed Precip Events Conditions
12:28 AM 24.8 °F 19.1 °F 19.4 °F 80% 30.02 in 7.0 mi SSE 4.6 mph - 0.00 in Snow Light Snow
12:53 AM 25.0 °F 20.7 °F 19.9 °F 81% 30.04 in 8.0 mi South 3.5 mph - 0.00 in   Overcast
1:53 AM 26.1 °F 21.9 °F 21.0 °F 81% 30.03 in 7.0 mi SSE 3.5 mph - 0.00 in   Overcast
2:43 AM 26.6 °F 21.2 °F 19.4 °F 74% 29.99 in 9.0 mi South 4.6 mph - 0.00 in   Overcast
3:51 AM 26.6 °F 21.2 °F 19.4 °F 74% 29.97 in 6.0 mi South 4.6 mph - 0.00 in Snow Light Snow
3:53 AM 26.1 °F 18.4 °F 19.9 °F 78% 30.00 in 6.0 mi South 6.9 mph - 0.00 in   Haze
4:24 AM 26.6 °F 18.2 °F 19.4 °F 74% 29.96 in 8.0 mi South 8.1 mph - N/A   Overcast
4:53 AM 26.1 °F 19.4 °F 19.9 °F 78% 29.98 in 10.0 mi Variable 5.8 mph - N/A   Overcast
5:53 AM 26.1 °F 21.9 °F 19.9 °F 78% 29.98 in 9.0 mi Variable 3.5 mph - N/A   Overcast
6:43 AM 26.6 °F 20.0 °F 21.2 °F 80% 29.96 in 7.0 mi WSW 5.8 mph - 0.00 in Snow Light Snow
6:53 AM 26.1 °F 21.9 °F 21.0 °F 81% 29.99 in 7.0 mi Variable 3.5 mph - 0.00 in Snow Light Snow
7:20 AM 26.6 °F 20.0 °F 21.2 °F 80% 29.97 in 6.0 mi SW 5.8 mph - 0.00 in Snow Light Snow
7:53 AM 26.1 °F 17.6 °F 19.9 °F 78% 30.00 in 6.0 mi WSW 8.1 mph - 0.00 in Snow Light Snow
8:53 AM 26.1 °F 20.5 °F 19.9 °F 78% 30.01 in 5.0 mi SW 4.6 mph - 0.00 in Snow Light Snow
9:53 AM 26.1 °F 20.5 °F 19.9 °F 78% 30.02 in 6.0 mi WSW 4.6 mph - 0.00 in Snow Light Snow
10:53 AM 26.1 °F 18.4 °F 19.9 °F 78% 30.04 in 5.0 mi West 6.9 mph - 0.00 in Snow Light Snow
11:53 AM 27.0 °F 17.3 °F 19.9 °F 75% 30.04 in 6.0 mi West 10.4 mph - 0.00 in Snow Light Snow
12:53 PM 27.0 °F 19.5 °F 19.9 °F 75% 30.03 in 8.0 mi SW 6.9 mph - 0.00 in Snow Light Snow
1:35 PM 28.4 °F 22.2 °F 21.2 °F 74% 29.99 in 7.0 mi WSW 5.8 mph - 0.00 in Snow Light Snow
1:53 PM 28.0 °F 19.3 °F 21.9 °F 78% 30.01 in 7.0 mi West 9.2 mph - 0.00 in Snow Light Snow
2:46 PM 28.4 °F 20.4 °F 23.0 °F 80% 29.99 in 7.0 mi West 8.1 mph - 0.00 in Snow Light Snow
2:53 PM 28.9 °F 21.9 °F 23.0 °F 78% 30.02 in 7.0 mi WSW 6.9 mph - 0.00 in Snow Light Snow
3:53 PM 30.0 °F 21.1 °F 19.9 °F 66% 30.04 in 10.0 mi WNW 10.4 mph - 0.00 in Snow Light Snow
4:53 PM 28.9 °F 20.4 °F 19.9 °F 69% 30.06 in 10.0 mi West 9.2 mph - 0.00 in Snow Light Snow
5:53 PM 28.9 °F 21.9 °F 21.0 °F 72% 30.08 in 10.0 mi West 6.9 mph - 0.00 in   Overcast
6:53 PM 28.9 °F 23.9 °F 21.0 °F 72% 30.08 in 10.0 mi WSW 4.6 mph - N/A   Overcast
7:53 PM 28.9 °F 19.8 °F 19.9 °F 69% 30.08 in 10.0 mi WSW 10.4 mph - N/A   Overcast
8:53 PM 28.9 °F 18.6 °F 19.9 °F 69% 30.07 in 10.0 mi WSW 12.7 mph 18.4 mph N/A   Overcast
9:53 PM 28.0 °F 16.5 °F 19.9 °F 72% 30.06 in 9.0 mi WSW 15.0 mph 20.7 mph N/A   Overcast
10:53 PM 27.0 °F 15.6 °F 19.9 °F 75% 30.03 in 8.0 mi SW 13.8 mph 25.3 mph N/A   Overcast
11:53 PM 28.0 °F 20.8 °F 19.9 °F 72% 30.03 in 9.0 mi SW 6.9 mph 17.3 mph N/A   Overcast